Regional Weather Roundup
Issued by NWS

Home | Current Version | Previous Version | Text Only | Print | Product List | Glossary Off
Versions: 1 2 3 4 5 6 7 8 9 10 11 12 13 14 15 16 17 18 19 20 21 22 23 24 25 26 27 28 29 30 31 32 33 34 35 36 37 38 39 40 41 42 43 44 45 46 47 48 49 50

000
ASUS45 KABQ 270410
RWRNM
NEW MEXICO REGIONAL WEATHER ROUNDUP
NATIONAL WEATHER SERVICE ALBUQUERQUE NM
1000 PM MDT TUE MAY 26 2015

NOTE: "FAIR" MEANS FEW OR NO CLOUDS BELOW 12,000 FEET AGL WITH NO
       SIGNIFICANT WEATHER OR OBSTRUCTIONS TO VISION.

      THIS PRODUCT IS RELEASED AS TWO VERSIONS.  ONE VERSION NEAR
      THE TOP OF THE HOUR CONTAINING PRELIMINARY DATA FROM ALBUQUERQUE
      AND OTHER STATIONS.  A FINAL VERSION WITH ADDITIONAL DATA IS
      ISSUED ABOUT 10 MINUTES AFTER THE HOUR.

NMZ501-503-504-510>518-270500-
NORTHWEST PLATEAU/NORTHCENTRAL MOUNTAINS

CITY           SKY/WX    TMP DP  RH WIND       PRES   REMARKS
FARMINGTON     PTCLDY    58  43  57 E5        30.09R
LOS ALAMOS     MOCLDY    58  34  40 W3        30.22F
SANTA FE         N/A     59  37  44 N6        30.16R
TAOS           PTCLDY    54  30  40 CALM      30.19R
ANGEL FIRE     FAIR      46  35  64 CALM      30.26R

$$
NMZ402-403-502-505>509-270500-
WESTCENTRAL MOUNTAINS/SOUTHWEST MOUNTAINS

CITY           SKY/WX    TMP DP  RH WIND       PRES   REMARKS
GALLUP         PTCLDY    52  35  52 NE5       30.14R
GRANTS         MOCLDY    58  30  34 W6        30.17R
SILVER CITY      N/A     57  25  28 N9        30.11S

$$
NMZ407-409-411-412-270500-
SOUTHERN DESERTS

CITY           SKY/WX    TMP DP  RH WIND       PRES   REMARKS
LORDSBURG      FAIR      70  16  12 SW8       30.02R
DEMING         CLEAR     69  18  14 W9        30.02R
LAS CRUCES     PTCLDY    70  23  16 S6        30.04R
HOLLOMAN AFB   PTCLDY    69  35  28 E7        30.01R
ALAMOGORDO     PTCLDY    68  32  26 SE3       30.03R
T OR C         CLEAR     74  24  15 W9        30.04R

$$
NMZ519>523-270500-
CENTRAL VALLEYS/CENTRAL HIGHLANDS

CITY           SKY/WX    TMP DP  RH WIND       PRES   REMARKS
ALBUQUERQUE    PTCLDY    63  45  51 SE12      30.11R
DOUBLE EAGLE   MOCLDY    59  45  58 S10       30.13R
MORIARTY ARPT  RAIN      60  43  53 W12G20    30.18R
CLINES CORNERS CLEAR     54  37  52 SW10      30.19R
BELEN          CLOUDY    65  51  62 CALM      30.10R
SOCORRO        FAIR      67  37  33 W6        30.06R

$$
NMZ524>526-539-540-270500-
SOUTHCENTRAL MOUNTAINS

CITY           SKY/WX    TMP DP  RH WIND       PRES   REMARKS
RUIDOSO        CLEAR     59  28  31 SW9       30.22R

$$
NMZ527>531-270500-
NORTHEAST HIGHLANDS/NORTHEAST PLAINS

CITY           SKY/WX    TMP DP  RH WIND       PRES   REMARKS
LAS VEGAS      PTCLDY    57  39  51 W5        30.17R
RATON          MOCLDY    54  47  77 NE5       30.14R
CLAYTON        CLOUDY    59  51  75 E5        30.09R

$$
NMZ532>537-270500-
EASTCENTRAL PLAINS

CITY           SKY/WX    TMP DP  RH WIND       PRES   REMARKS
TUCUMCARI      PTCLDY    63  52  67 E5        30.01R
CANNON AFB     CLEAR     65  50  58 SE7       30.05R
CLOVIS AIRPORT CLEAR     61  52  72 SE6       30.03

$$
NMZ028-029-538-270500-
SOUTHEAST PLAINS

CITY           SKY/WX    TMP DP  RH WIND       PRES   REMARKS
ROSWELL        CLEAR     69  42  37 E6        29.98R
ARTESIA        CLEAR     73  32  21 W10       29.99R
CARLSBAD       CLEAR     71  33  24 W7        29.96R
HOBBS          CLEAR     64  46  52 E7        30.03R


$$



USA.gov is the U.S. government's official web portal to all federal, state and local government web resources and services.